�������C�����ː����j�^�v���󋵏��
Date,Time,Cs137(Bq/L),Cs134(Bq/L),�S��(Bq/L)
2017/07/15,00:00,0.79,ND,ND
2017/07/15,00:10,0.78,0.032,ND
2017/07/15,00:20,0.73,0.033,ND
2017/07/15,00:30,0.74,0.029,ND
2017/07/15,00:40,0.74,0.026,ND
2017/07/15,00:50,0.75,0.031,ND
2017/07/15,01:00,0.74,0.030,ND
2017/07/15,01:10,0.75,0.027,ND
2017/07/15,01:20,0.75,0.033,ND
2017/07/15,01:30,0.70,0.045,ND
2017/07/15,01:40,0.69,0.038,ND
2017/07/15,01:50,0.75,0.035,ND
2017/07/15,02:00,0.77,0.026,ND
2017/07/15,02:10,0.78,0.029,ND
2017/07/15,02:20,0.82,ND,ND
2017/07/15,02:30,0.82,ND,ND
2017/07/15,02:40,0.83,ND,ND
2017/07/15,02:50,0.82,ND,ND
2017/07/15,03:00,0.79,0.029,ND
2017/07/15,03:10,0.82,ND,ND
2017/07/15,03:20,0.75,0.031,ND
2017/07/15,03:30,0.76,0.029,ND
2017/07/15,03:40,0.78,0.039,ND
2017/07/15,03:50,0.81,0.032,ND
2017/07/15,04:00,0.81,0.026,ND
2017/07/15,04:10,0.81,0.033,ND
2017/07/15,04:20,0.79,0.025,ND
2017/07/15,04:30,0.84,ND,ND
2017/07/15,04:40,0.81,ND,ND
2017/07/15,04:50,0.80,ND,ND
2017/07/15,05:00,0.80,ND,ND
2017/07/15,05:10,0.79,ND,ND
2017/07/15,05:20,0.78,ND,ND
2017/07/15,05:30,0.77,ND,ND
2017/07/15,05:40,0.80,ND,ND
2017/07/15,05:50,0.81,ND,ND
2017/07/15,06:00,0.85,ND,ND
2017/07/15,06:10,0.79,0.032,ND
2017/07/15,06:20,0.82,0.026,ND
2017/07/15,06:30,0.85,ND,ND
2017/07/15,06:40,0.82,ND,ND
2017/07/15,06:50,0.76,ND,ND
2017/07/15,07:00,0.77,ND,ND
2017/07/15,07:10,0.78,ND,ND
2017/07/15,07:20,0.73,0.027,ND
2017/07/15,07:30,0.76,0.030,ND
2017/07/15,07:40,0.82,ND,ND
2017/07/15,07:50,0.82,0.035,ND
2017/07/15,08:00,0.82,0.036,ND
2017/07/15,08:10,0.82,0.034,ND
2017/07/15,08:20,0.85,ND,ND
2017/07/15,08:30,0.79,ND,ND
2017/07/15,08:40,0.82,ND,ND
2017/07/15,08:50,0.76,ND,ND
2017/07/15,09:00,0.79,ND,ND
2017/07/15,09:10,0.76,0.028,ND
2017/07/15,09:20,0.75,0.033,ND
2017/07/15,09:30,0.75,0.032,ND
2017/07/15,09:40,0.77,0.037,ND
2017/07/15,09:50,0.79,0.031,ND
2017/07/15,10:00,0.82,0.031,ND
2017/07/15,10:10,0.85,0.031,ND
2017/07/15,10:20,0.86,0.025,ND
2017/07/15,10:30,0.87,0.032,ND
2017/07/15,10:40,0.80,0.037,ND
2017/07/15,10:50,0.80,0.033,ND
2017/07/15,11:00,0.84,0.039,ND
2017/07/15,11:10,0.82,0.034,ND
2017/07/15,11:20,0.78,0.034,ND
2017/07/15,11:30,0.78,0.035,ND
2017/07/15,11:40,0.84,0.028,ND
2017/07/15,11:50,0.81,0.039,ND
2017/07/15,12:00,0.80,0.040,ND
2017/07/15,12:10,0.79,0.043,ND
2017/07/15,12:20,0.78,0.043,ND
2017/07/15,12:30,0.76,0.049,ND
2017/07/15,12:40,0.74,0.055,ND
2017/07/15,12:50,0.80,0.040,ND
2017/07/15,13:00,0.78,0.046,ND
2017/07/15,13:10,0.77,0.031,ND
2017/07/15,13:20,0.74,0.030,ND
2017/07/15,13:30,0.75,0.029,ND
2017/07/15,13:40,0.83,ND,ND
2017/07/15,13:50,0.76,0.028,ND
2017/07/15,14:00,0.74,0.029,ND
2017/07/15,14:10,0.71,0.035,ND
2017/07/15,14:20,0.71,0.042,ND
2017/07/15,14:30,0.78,0.035,ND
2017/07/15,14:40,0.71,0.030,ND
2017/07/15,14:50,0.72,0.030,ND
2017/07/15,15:00,0.82,ND,ND
2017/07/15,15:10,0.79,ND,ND
2017/07/15,15:20,0.81,ND,ND
2017/07/15,15:30,0.76,ND,ND
2017/07/15,15:40,0.77,ND,ND
2017/07/15,15:50,0.78,ND,ND
2017/07/15,16:00,0.79,ND,ND
2017/07/15,16:10,0.78,ND,ND
2017/07/15,16:20,0.72,0.030,ND
2017/07/15,16:30,0.74,ND,ND
2017/07/15,16:40,0.66,0.036,ND
2017/07/15,16:50,0.69,0.043,ND
2017/07/15,17:00,0.65,0.055,ND
2017/07/15,17:10,0.67,0.051,ND
2017/07/15,17:20,0.66,0.055,ND
2017/07/15,17:30,0.66,0.063,ND
2017/07/15,17:40,0.57,0.074,ND
2017/07/15,17:50,0.69,0.046,ND
2017/07/15,18:00,0.70,0.039,ND
2017/07/15,18:10,0.71,0.033,ND
2017/07/15,18:20,0.71,0.037,ND
2017/07/15,18:30,0.72,0.034,ND
2017/07/15,18:40,0.73,0.037,ND
2017/07/15,18:50,0.74,0.032,ND
2017/07/15,19:00,0.63,0.054,ND
2017/07/15,19:10,0.61,0.060,ND
2017/07/15,19:20,0.77,0.037,ND
2017/07/15,19:30,0.76,0.037,ND
2017/07/15,19:40,0.77,0.035,ND
2017/07/15,19:50,0.70,0.051,ND
2017/07/15,20:00,0.71,0.043,ND
2017/07/15,20:10,0.71,0.044,ND
2017/07/15,20:20,0.70,0.039,ND
2017/07/15,20:30,0.71,0.033,ND
2017/07/15,20:40,0.76,0.033,ND
2017/07/15,20:50,0.80,ND,ND
2017/07/15,21:00,0.75,0.030,ND
2017/07/15,21:10,0.76,0.031,ND
2017/07/15,21:20,0.76,0.029,ND
2017/07/15,21:30,0.73,0.040,ND
2017/07/15,21:40,0.73,0.042,ND
2017/07/15,21:50,0.75,0.032,ND
2017/07/15,22:00,0.79,ND,ND
2017/07/15,22:10,0.75,0.027,ND
2017/07/15,22:20,0.75,0.026,ND
2017/07/15,22:30,0.80,ND,ND
2017/07/15,22:40,0.79,ND,ND
2017/07/15,22:50,0.75,0.027,ND
2017/07/15,23:00,0.77,0.026,ND
2017/07/15,23:10,0.82,ND,ND
2017/07/15,23:20,0.70,0.028,ND
2017/07/15,23:30,0.75,0.028,ND
2017/07/15,23:40,0.70,0.026,ND
2017/07/15,23:50,0.77,0.027,ND
